Hettinger, ND

11:01 PM MDT on May 23, 2017 (GMT -0600)
Hettinger Municipal

Weather History for KHEI - November, 2012

Change the Weather History Date:

Friday, November 30, 2012

  Actual Average Record
Temperature  
Mean Temperature 26 °F -  
Max Temperature 35 °F 34 °F 52 °F (1999)
Min Temperature 16 °F 11 °F -7 °F (2014)
Degree Days  
Heating Degree Days 39 43  
Month to date heating degree days 990 1077  
Since 1 July heating degree days 1978 2130  
Moisture  
Dew Point 19 °F    
Average Humidity 82    
Maximum Humidity 92    
Minimum Humidity 64    
Precipitation  
Precipitation 0.00 in 0.00 in 0.06 in (2011)
Month to date precipitation 0.06 0.60  
Year to date precipitation 14.58 15.79  
Sea Level Pressure  
Sea Level Pressure 29.91 in    
Wind  
Wind Speed 7 mph (SE)    
Max Wind Speed 14 mph    
Max Gust Speed 18 mph    
Visibility 8 miles    
Events      
T = Trace of Precipitation, MM = Missing Value Source: NWS Daily Summary

Daily Weather History Graph

Daily Weather History Graph

Search for Another Location

Airport or City:

Trip Planner

Search our weather history database for the weather conditions in past years. The results will help you decide how hot, cold, wet, or windy it might be!

Date:

Astronomy

Nov. 30, 2012 Rise Set
Actual Time 7:11 AM MST 4:07 PM MST
Civil Twilight 6:37 AM MST 4:41 PM MST
Nautical Twilight 6:00 AM MST 5:18 PM MST
Astronomical Twilight 5:24 AM MST 5:54 PM MST
Moon 6:04 PM MST (11/30) 8:44 AM MST (11/30)
Length of Visible Light 10h 03m
Length of Day
8h 55m
Waning Gibbous, 96% of the Moon is Illuminated
Nov 30
Waning Gibbous
Dec 6
Last Quarter
Dec 13
New
Dec 19
First Quarter
Dec 28
Full

Hourly Weather History & Observations

Time (MST) Temp. Windchill Dew Point Humidity Pressure Visibility Wind Dir Wind Speed Gust Speed Precip Events Conditions
12:53 AM 18.0 °F 11.1 °F 14.0 °F 84% 30.08 in 7.0 mi South 4.6 mph - N/A   Clear
1:53 AM 17.1 °F 7.6 °F 14.0 °F 88% 30.07 in 7.0 mi SE 6.9 mph - N/A   Clear
2:53 AM 18.0 °F 9.8 °F 14.0 °F 84% 30.05 in 8.0 mi ESE 5.8 mph - N/A   Clear
3:53 AM 18.0 °F 9.8 °F 15.1 °F 88% 30.03 in 8.0 mi SE 5.8 mph - N/A   Clear
4:53 AM 18.0 °F 8.7 °F 15.1 °F 88% 30.03 in 8.0 mi SE 6.9 mph - N/A   Clear
5:53 AM 18.0 °F 7.7 °F 15.1 °F 88% 30.03 in 8.0 mi SE 8.1 mph - N/A   Clear
6:53 AM 18.0 °F 9.8 °F 14.0 °F 84% 30.04 in 8.0 mi SE 5.8 mph - N/A   Clear
7:53 AM 18.0 °F 8.7 °F 14.0 °F 84% 30.02 in 6.0 mi ESE 6.9 mph - N/A   Clear
8:53 AM 19.9 °F 10.1 °F 17.1 °F 89% 29.99 in 5.0 mi SE 8.1 mph - N/A   Clear
9:53 AM 23.0 °F 13.1 °F 19.9 °F 88% 29.97 in 6.0 mi SSE 9.2 mph - N/A   Clear
10:53 AM 26.1 °F 16.8 °F 21.9 °F 84% 29.95 in 6.0 mi SE 9.2 mph - N/A   Clear
11:53 AM 30.9 °F 21.7 °F 24.1 °F 76% 29.90 in 10.0 mi SE 11.5 mph - N/A   Clear
12:53 PM 34.0 °F 25.5 °F 24.1 °F 67% 29.86 in 10.0 mi SE 11.5 mph - N/A   Clear
1:53 PM 35.1 °F 26.9 °F 25.0 °F 67% 29.83 in 10.0 mi SSE 11.5 mph - N/A   Clear
2:53 PM 35.1 °F 26.4 °F 26.1 °F 70% 29.79 in 10.0 mi SSE 12.7 mph - N/A   Clear
3:53 PM 33.1 °F 26.1 °F 25.0 °F 72% 29.77 in 10.0 mi SE 8.1 mph - N/A   Clear
5:53 PM 30.0 °F 25.2 °F 24.1 °F 79% 29.77 in 10.0 mi East 4.6 mph - N/A   Clear
6:53 PM 27.0 °F 20.5 °F 23.0 °F 85% 29.75 in 10.0 mi East 5.8 mph - N/A   Clear
7:53 PM 27.0 °F 23.0 °F 23.0 °F 85% 29.74 in 9.0 mi SE 3.5 mph - N/A   Clear
8:53 PM 19.9 °F 13.4 °F 17.1 °F 89% 29.76 in 6.0 mi WNW 4.6 mph - N/A   Clear
11:53 PM 26.1 °F 19.4 °F 21.9 °F 84% 29.73 in 10.0 mi NW 5.8 mph - N/A   Clear